Location: Newark
(35.2672°N, 80.7344°W)
Time: 14:15:18
(UTC+00:00)

Tiros 1 - Pass Details

Date: 23 January 2020
Orbit: 631 x 664 km, 48.4° (Epoch: 22 February)

Event Time Altitude Azimuth Distance (km) Brightness Sun altitude
Rises 18:16:38 0° 236° (SW) 2,922 11.1 34.4°
Reaches altitude 10° 18:18:56 10° 238° (WSW) 2,021 10.4 34.3°
Maximum altitude 18:23:35 76° 324° (NW) 666 7.7 34.1°
Drops below altitude 10° 18:28:19 10° 50° (NE) 2,051 9.4 33.8°
Sets 18:30:41 0° 52° (NE) 2,969 10.1 33.7°
